Location: ????????
(55.4000°N, 39.1167°E)
Time: 03:20:29
(UTC+00:00)

Cosmos 2369 - Pass Details

Date: 19 May 2025
Orbit: 839 x 853 km, 71.0° (Epoch: 14 June)

Event Time Altitude Azimuth Distance (km) Brightness Sun altitude
Rises 19:47:28 0° 324° (NW) 3,418 8.6 -12.1°
Reaches altitude 10° 19:49:58 10° 321° (NW) 2,477 7.4 -12.2°
Maximum altitude 19:55:29 55° 245° (WSW) 1,009 4.1 -12.5°
Enters shadow 19:59:43 17° 173° (S) 2,000 5.0 -12.7°
